Regional Weather Roundup
Issued by NWS

Home | Current Version | Previous Version | Text Only | Print | Product List | Glossary Off
Versions: 1 2 3 4 5 6 7 8 9 10 11 12 13 14 15 16 17 18 19 20 21 22 23 24 25 26 27 28 29 30 31 32 33 34 35 36 37 38 39 40 41 42 43 44 45 46 47 48 49 50

524
ASUS44 KLIX 241701
RWRLA
LOUISIANA WEATHER ROUNDUP
NATIONAL WEATHER SERVICE NEW ORLEANS LA
1200 PM CDT THU JUL 24 2014

NOTE: "FAIR" INDICATES FEW OR NO CLOUDS BELOW 12,000 FEET WITH NO
      SIGNIFICANT WEATHER AND/OR OBSTRUCTIONS TO VISIBILITY.
      SKY/WX - SKY CONDITION AND SIGNIFICANT WEATHER.
      TMP - AIR TEMPERATURE.    DP   - DEWPOINT TEMPERATURE.
      RH  - RELATIVE HUMIDITY.  PRES - PRESSURE.
      HX  - HEAT INDEX.         WCI  - WIND CHILL INDEX.

*  THESE STATIONS ARE NOT NWS OR FAA STATIONS AND ARE NOT UNDER
   NWS QUALITY CONTROL.

LAZ040-048-061>063-065-066-069-241800-
SOUTHEAST LOUISIANA

CITY           SKY/WX    TMP DP  RH WIND       PRES   REMARKS
N.O. AUDUBON   NOT AVBL
N.O. INTL ARPT PTSUNNY   85  73  67 VRB3      30.00F
N.O. LAKEFRONT MOSUNNY   85  74  69 N3        30.02S
N.O. DOWNTOWN* CLOUDY    84  72  65 NE6       30.01F
SLIDELL        LGT RAIN  84  75  74 NE3       30.01S
BATON ROUGE    PTSUNNY   87  72  60 N3        30.01S
BOOTHVILLE     NOT AVBL
BELLE CHASSE   PTSUNNY   86  72  62 E6        30.00F
BOGALUSA*      FAIR      88  69  54 CALM      30.03S
GALLIANO*      NOT AVBL
NEW ROADS*     PTSUNNY   83  75  75 N3        30.02S
GONZALES*      FAIR      85  72  64 E3        30.00F
HAMMOND*       MOSUNNY   86  70  58 CALM      30.02F
HOUMA*         MOSUNNY   84  70  61 CALM      30.01R
PORT FOURCHON* PTSUNNY   77  72  83 W14G21    30.05R

$$

LAZ041-044-053-054-241800-
SOUTHWEST LOUISIANA

CITY           SKY/WX    TMP DP  RH WIND       PRES   REMARKS
LAKE CHARLES   MOSUNNY   85  72  65 NW7       30.01S
LAFAYETTE      PTSUNNY   88  74  63 E3        30.00F HX  96
PATTERSON      SUNNY     88  75  66 N3        30.05F HX  97
SALT POINT       N/A     88  76  67 W5        30.00S HX  99
NEW IBERIA     PTSUNNY   90  74  59 VRB5      30.01S HX  99
CHENAULT AIRPK   N/A     84  72  65 NE5       30.02F

$$

LAZ027-028-241800-
CENTRAL LOUISIANA

CITY           SKY/WX    TMP DP  RH WIND       PRES   REMARKS
FORT POLK      PTSUNNY   82  71  69 CALM      30.03S
ALEXANDRIA INT SUNNY     84  71  65 CALM      30.01S
ALEXANDRIA     PTSUNNY   86  72  62 CALM      30.02F

$$

LAZ001-002-241800-
NORTHWEST LOUISIANA

CITY           SKY/WX    TMP DP  RH WIND       PRES   REMARKS
SHREVEPORT     CLOUDY    79  70  74 VRB6      30.06S
BARKSDALE AFB  NOT AVBL
DTN SHREVEPORT NOT AVBL

$$

LAZ014-016-241800-
NORTHEAST LOUISIANA

CITY           SKY/WX    TMP DP  RH WIND       PRES   REMARKS
MONROE         MOSUNNY   83  73  72 CALM      30.04F
TALLULAH       PTSUNNY   84  75  74 VRB3      30.02F

$$




USA.gov is the U.S. government's official web portal to all federal, state and local government web resources and services.